Flag for U.S.A. Weather past 2 weeks in Wilmington, North Carolina, U.S.A.

Now
70 °F

Sunny.


Feels Like: 75 °F
Forecast: 45 / 71 °F
Wind: 8 mph from Southwest

Location: New Hanover International Airport

Current Time: Mar 31, 2015 at 1:38:02 PM

Latest Report: Mar 31, 2015 at 12:53 PM


Visibility: 10 mi

Pressure: 30.00 "Hg

Humidity: 23%

Dew point: 31 °F

Location of WilmingtonLocation

Historic Weather in Wilmington — Graph

°F

Wilmington temperature yesterday

Maximum temperature yesterday: 67 °F (at 4:53 PM)
Minimum temperature yesterday: 33 °F (at 1:53 AM)
Average temperature yesterday: 51 °F

Past Weeks' High & Low Weather Summary

 TemperatureHumidityPressure
High82 °F (Mar 17, 2:53 PM)97% (Mar 20, 3:53 AM)30.44 "Hg (Mar 20, 3:53 AM)
Low29 °F (Mar 29, 5:53 AM)19% (Mar 17, 5:53 PM)29.64 "Hg (Mar 27, 12:53 PM)
Average55 °F70%30.06 "Hg
* Reported Mar 16 11:53 AM — Mar 31 11:53 AM, Wilmington, Weather by CustomWeather, © 2015

Note: Actual official high and low records may vary slightly from our data, if they occured in-between our weather recording intervals... More about our weather records

Advertising

Wilmington weather history for previous 24 hours

 ConditionsComfort  
Time TempWeatherWind HumidityBarometerVisibility
11:53 AM
Tue, Mar 31
69 °FSunny.5 mph24%30.03 "Hg10 mi
10:53 AM66 °FSunny.No wind27%30.05 "Hg10 mi
9:53 AM63 °FSunny.3 mph35%30.06 "Hg10 mi
8:53 AM55 °FSunny.No wind64%30.06 "Hg10 mi
7:53 AM46 °FClear.No wind96%30.04 "Hg8 mi
6:53 AM45 °FClear.No wind90%30.02 "Hg10 mi
5:53 AM46 °FClear.No wind93%30.01 "Hg10 mi
4:53 AM49 °FClear.3 mph90%30.00 "Hg10 mi
3:53 AM49 °FPassing clouds.3 mph90%30.01 "Hg10 mi
2:53 AM49 °FPassing clouds.No wind90%30.01 "Hg10 mi
1:53 AM49 °FPassing clouds.5 mph90%30.03 "Hg10 mi
12:53 AM47 °FClear.No wind90%30.03 "Hg10 mi
11:53 PM
Mon, Mar 30
49 °FClear.No wind86%30.04 "Hg10 mi
10:53 PM52 °FClear.3 mph80%30.04 "Hg10 mi
9:53 PM51 °FClear.6 mph80%30.03 "Hg10 mi
8:53 PM55 °FClear.5 mph72%30.01 "Hg10 mi
7:53 PM60 °FSunny.6 mph60%30.00 "Hg10 mi
6:53 PM64 °FPartly sunny.12 mph50%29.98 "Hg10 mi
5:53 PM66 °FSunny.13 mph47%29.97 "Hg10 mi
4:53 PM67 °FSunny.14 mph47%29.96 "Hg10 mi
3:53 PM66 °FPartly sunny.22 mph47%29.98 "Hg10 mi
2:53 PM64 °FSunny.20 mph49%30.02 "Hg10 mi
1:53 PM60 °FMostly cloudy.20 mph52%30.05 "Hg10 mi
Weather by CustomWeather, © 2015

See weather overviewHow to use our weather pages